YAOGAN-22

Last updated on Mon Sep 21 2026 00:02:45 GMT+0000 (Coordinated Universal Time)

1 40275U 14063A 26263.40146214 -.00000014 00000+0 86728-4 0 9993 2 40275 100.7871 56.3206 0006105 341.0094 19.0788 13.15533463572336
UTC large
Height (km)
Speed (km/s)
/
Latitude / Longitude
Inclination (degrees)
Orbital Period (minutes)
Azimuth
Elevation
Range (km)
Doppler Factor

Next 0 passes for location: London (51.5072 / 0.1276)

No passes found over London.
YAOGAN-22